{"data":{"norad_id":60405,"intl_designator":"2024-141H","name":"STARLINK-11081 [DTC]","alt_names":[],"object_type":"PAYLOAD","status":"ACTIVE","operator":null,"country":"US","launch_date":"2024-08-10","launch_site_code":"AFETR","launch_vehicle":null,"mission":null,"orbit_class":"UNKNOWN","rcs_meters":null,"size_class":null,"mass_kg":null,"dimensions":null,"purposes":["comms"],"wikipedia_slug":null,"has_3d_model":false,"image_url":null,"decayed_at":null,"tle_current":{"epoch":"2026-05-25T04:22:25.479840Z","epoch_age_seconds":56771,"freshness":"FRESH","line1":"1 60405U 24141H   26145.18223935 -.00000644  00000+0 -45583-6 0  9994","line2":"2 60405  53.1586  69.4173 0001049  54.9199 305.1917 15.69716787103700","mean_motion":15.69716787,"eccentricity":0.0001049,"inclination_deg":53.1586,"raan_deg":69.4173,"arg_perigee_deg":54.9199,"mean_anomaly_deg":305.1917,"bstar":-4.5583e-7,"rev_number":10370,"period_min":91.736293573829,"perigee_km":359.00052882361,"apogee_km":360.41412856376,"semimajor_km":6737.8443286937,"source":"CELESTRAK","updated_at":"2026-05-25T13:38:19.268316Z"}}}